This is the latest recevied weather packets stored in our database for station/object K1RFS. If no packets are shown the sender has not sent any weather packets the latest 10 day(s).
| Time | Temp. | Humidity | Pressure | Rain* | Wind** | Luminosity | Snow |
|---|---|---|---|---|---|---|---|
| 1788042814 | 21.67° C | 61% | 1002.5 hPa | 0 mm | - | 57 W/m² | - |
| 1788042512 | 22.22° C | 59% | 1002.2 hPa | 0 mm | - | 82 W/m² | - |
| 1788042208 | 22.22° C | 56% | 1002.6 hPa | 0 mm | - | 47 W/m² | - |
| 1788041904 | 22.22° C | 51% | 1002.9 hPa | 0 mm | - | 54 W/m² | - |
| 1788041605 | 22.22° C | 51% | 1003.1 hPa | 0 mm | - | 34 W/m² | - |
| 1788041304 | 22.78° C | 51% | 1003.3 hPa | 0 mm | - | 48 W/m² | - |
| 1788041003 | 23.33° C | 51% | 1003.2 hPa | 0 mm | - | 98 W/m² | - |
| 1788040702 | 23.33° C | 49% | 1003.3 hPa | 0 mm | - | 131 W/m² | - |
| 1788040397 | 23.89° C | 50% | 1003.3 hPa | 0 mm | - | 158 W/m² | - |
| 1788040093 | 24.44° C | 48% | 1003.3 hPa | 0 mm | - | 157 W/m² | - |
| 1788039787 | 25° C | 46% | 1003.3 hPa | 0 mm | - | 516 W/m² | - |
| 1788039482 | 23.33° C | 50% | 1003.3 hPa | 0 mm | - | 559 W/m² | - |
| 1788039178 | 23.89° C | 49% | 1003.6 hPa | 0 mm | - | 261 W/m² | - |
| 1788038873 | 24.44° C | 50% | 1003.4 hPa | 0 mm | - | 202 W/m² | - |
| 1788038568 | 23.89° C | 52% | 1003.6 hPa | 0 mm | - | 452 W/m² | - |
| 1788038267 | 23.33° C | 53% | 1003.9 hPa | 0 mm | - | 316 W/m² | - |
| 1788037962 | 22.78° C | 53% | 1004.1 hPa | 0 mm | - | 188 W/m² | - |
| 1788037657 | 23.89° C | 51% | 1004 hPa | 0 mm | - | 214 W/m² | - |
| 1788037352 | 23.89° C | 51% | 1003.9 hPa | 0 mm | - | 577 W/m² | - |
| 1788037050 | 22.78° C | 55% | 1004.1 hPa | 0 mm | - | 607 W/m² | - |
| 1788036747 | 22.22° C | 57% | 1004.6 hPa | 0 mm | - | 272 W/m² | - |
| 1788036443 | 21.67° C | 58% | 1004.5 hPa | 0 mm | - | 289 W/m² | - |
| 1788036138 | 21.67° C | 59% | 1004.4 hPa | 0 mm | - | 175 W/m² | - |
| 1788035833 | 21.11° C | 61% | 1004.7 hPa | 0 mm | - | 659 W/m² | - |
| 1788035528 | 21.67° C | 61% | 1004.6 hPa | 0 mm | - | 175 W/m² | - |
* Rain latest hour (hover to see other rain measurements)
** Current wind speed in m/s (hover to see current wind gust speed)